Location: Newark
(47.5500°N, 8.6167°E)
Time: 11:14:44
(UTC+00:00)

Envisat - Pass Details

Date: 28 January 2020
Orbit: 764 x 766 km, 98.1° (Epoch: 20 February)

Event Time Altitude Azimuth Distance (km) Brightness Sun altitude
Rises 17:16:35 0° 170° (S) 3,220 6.3 -9.8°
Reaches altitude 10° 17:18:53 10° 172° (S) 2,298 5.6 -10.1°
Maximum altitude 17:23:57 73° 257° (WSW) 804 3.3 -11.0°
Drops below altitude 10° 17:29:03 10° 343° (NNW) 2,314 5.5 -11.8°
Sets 17:31:23 0° 345° (NNW) 3,245 6.3 -12.2°
